Location: Ajisawe
(8.4333°N, 4.3833°E)
Time: 10:59:39
(UTC+00:00)

Vanguard 2 Rocket - Pass Details

Date: 27 April 2021
Orbit: 553 x 3326 km, 32.9° (Epoch: 07 May)

Event Time Altitude Azimuth Distance (km) Brightness Sun altitude
Rises 11:58:02 0° 285° (WNW) 5,489 11.0 82.9°
Reaches altitude 10° 12:01:54 10° 295° (WNW) 4,867 10.9 82.3°
Maximum altitude 12:14:48 32° 353° (N) 4,273 10.9 79.8°
Drops below altitude 10° 12:31:36 10° 50° (NE) 6,282 11.2 76.2°
Sets 12:37:39 0° 60° (ENE) 7,245 11.4 74.8°
